Weather History for KANE - November, 2012

Change the Weather History Date:

Wednesday, November 28, 2012

  Actual Average Record
Temperature  
Mean Temperature 30 °F -  
Max Temperature 37 °F 34 °F 53 °F (1998)
Min Temperature 24 °F 20 °F 8 °F (2014)
Degree Days  
Heating Degree Days 34    
Moisture  
Dew Point 24 °F    
Average Humidity 77    
Maximum Humidity 86    
Minimum Humidity 52    
Precipitation  
Precipitation 0.00 in - - ()
Sea Level Pressure  
Sea Level Pressure 30.22 in    
Wind  
Wind Speed 8 mph (WSW)    
Max Wind Speed 15 mph    
Max Gust Speed 18 mph    
Visibility 10 miles    
Events      
Averages and records for this station are not official NWS values.
T = Trace of Precipitation, MM = Missing Value Source: NWS Daily Summary

Daily Weather History Graph

Daily Weather History Graph

Search for Another Location

Airport or City:

Trip Planner

Search our weather history database for the weather conditions in past years. The results will help you decide how hot, cold, wet, or windy it might be!

Date:

Astronomy

Nov. 28, 2012 Rise Set
Actual Time 7:28 AM CST 4:33 PM CST
Civil Twilight 6:55 AM CST 5:06 PM CST
Nautical Twilight 6:18 AM CST 5:42 PM CST
Astronomical Twilight 5:43 AM CST 6:18 PM CST
Moon 4:48 PM CST (11/28) 7:26 AM CST (11/28)
Length of Visible Light 10h 11m
Length of Day
9h 04m
Full, 100% of the Moon is Illuminated
Nov 28
Full
Dec 6
Last Quarter
Dec 13
New
Dec 19
First Quarter
Dec 28
Full

Hourly Weather History & Observations

Time (CST) Temp. Windchill Dew Point Humidity Pressure Visibility Wind Dir Wind Speed Gust Speed Precip Events Conditions
12:14 AM 26.6 °F 18.2 °F 23.0 °F 86% 30.23 in 10.0 mi WNW 8.1 mph - N/A   Mostly Cloudy
12:34 AM 28.4 °F 19.7 °F 24.8 °F 86% 30.24 in 10.0 mi WNW 9.2 mph - N/A   Overcast
12:54 AM 28.4 °F 22.2 °F 24.8 °F 86% 30.25 in 10.0 mi WNW 5.8 mph - N/A   Overcast
1:14 AM 28.4 °F 17.0 °F 23.0 °F 80% 30.25 in 10.0 mi WNW 15.0 mph 18.4 mph N/A   Overcast
1:34 AM 28.4 °F 19.7 °F 23.0 °F 80% 30.25 in 10.0 mi WNW 9.2 mph - N/A   Overcast
1:54 AM 26.6 °F 15.2 °F 23.0 °F 86% 30.26 in 10.0 mi NW 13.8 mph 18.4 mph N/A   Overcast
2:14 AM 26.6 °F 17.5 °F 23.0 °F 86% 30.27 in 10.0 mi NW 9.2 mph - N/A   Overcast
2:34 AM 26.6 °F 19.1 °F 21.2 °F 80% 30.27 in 10.0 mi WNW 6.9 mph - N/A   Overcast
2:54 AM 26.6 °F 20.0 °F 21.2 °F 80% 30.27 in 10.0 mi WNW 5.8 mph 9.2 mph N/A   Overcast
3:14 AM 26.6 °F 16.2 °F 21.2 °F 80% 30.28 in 10.0 mi WNW 11.5 mph - N/A   Overcast
3:34 AM 26.6 °F 18.2 °F 21.2 °F 80% 30.28 in 10.0 mi WNW 8.1 mph - N/A   Overcast
3:54 AM 26.6 °F 16.8 °F 21.2 °F 80% 30.28 in 10.0 mi WNW 10.4 mph - N/A   Overcast
4:14 AM 26.6 °F 17.5 °F 21.2 °F 80% 30.28 in 10.0 mi WNW 9.2 mph - N/A   Overcast
4:34 AM 26.6 °F 18.2 °F 21.2 °F 80% 30.29 in 10.0 mi NW 8.1 mph - N/A   Overcast
4:54 AM 26.6 °F 18.2 °F 21.2 °F 80% 30.29 in 10.0 mi WNW 8.1 mph - N/A   Overcast
5:14 AM 26.6 °F 17.5 °F 21.2 °F 80% 30.30 in 10.0 mi West 9.2 mph - N/A   Overcast
5:34 AM 26.6 °F 17.5 °F 21.2 °F 80% 30.30 in 10.0 mi WNW 9.2 mph - N/A   Overcast
6:13 AM 26.6 °F 20.0 °F 21.2 °F 80% 30.31 in 10.0 mi West 5.8 mph - N/A   Overcast
6:34 AM 26.6 °F 17.5 °F 21.2 °F 80% 30.31 in 10.0 mi West 9.2 mph - N/A   Overcast
6:45 AM 37.4 °F 30.8 °F 21.2 °F 52% 30.32 in 10.0 mi WNW 9.2 mph - N/A   Overcast
6:54 AM 26.6 °F 18.2 °F 21.2 °F 80% 30.31 in 10.0 mi WNW 8.1 mph - N/A   Overcast
7:50 AM 24.8 °F 17.9 °F 21.2 °F 86% 30.32 in 10.0 mi WNW 5.8 mph - N/A   Overcast
8:45 AM 26.6 °F - 21.2 °F 80% 30.32 in 10.0 mi Calm Calm - N/A   Overcast
9:45 AM 28.4 °F 23.3 °F 21.2 °F 74% 30.32 in 10.0 mi WSW 4.6 mph - N/A   Overcast
10:45 AM 28.4 °F 23.3 °F 21.2 °F 74% 30.32 in 10.0 mi WSW 4.6 mph - N/A   Overcast
11:45 AM 30.2 °F 25.4 °F 24.8 °F 80% 30.29 in 10.0 mi WSW 4.6 mph - N/A   Scattered Clouds
12:45 PM 33.8 °F 27.0 °F 24.8 °F 70% 30.26 in 10.0 mi SSW 8.1 mph - N/A   Mostly Cloudy
1:50 PM 35.6 °F 27.5 °F 24.8 °F 65% 30.22 in 10.0 mi SSW 11.5 mph - N/A   Mostly Cloudy
2:45 PM 35.6 °F 27.5 °F 24.8 °F 65% 30.18 in 10.0 mi South 11.5 mph - N/A   Mostly Cloudy
3:55 PM 35.6 °F 27.5 °F 24.8 °F 65% 30.15 in 10.0 mi South 11.5 mph - N/A   Mostly Cloudy
4:45 PM 30.2 °F 24.3 °F 24.8 °F 80% 30.14 in 10.0 mi SSE 5.8 mph - N/A   Mostly Cloudy
5:45 PM 30.2 °F 24.3 °F 24.8 °F 80% 30.13 in 10.0 mi South 5.8 mph - N/A   Mostly Cloudy
6:50 PM 30.2 °F 24.3 °F 24.8 °F 80% 30.13 in 10.0 mi SSE 5.8 mph - N/A   Overcast
7:45 PM 33.8 °F 27.0 °F 26.6 °F 75% 30.11 in 10.0 mi SSE 8.1 mph - N/A   Overcast
8:55 PM 33.8 °F 28.6 °F 26.6 °F 75% 30.11 in 10.0 mi SSE 5.8 mph - N/A   Overcast
9:14 PM 33.8 °F 28.6 °F 26.6 °F 75% 30.11 in 10.0 mi South 5.8 mph - N/A   Scattered Clouds
9:34 PM 33.8 °F 29.6 °F 26.6 °F 75% 30.11 in 10.0 mi SSE 4.6 mph - N/A   Scattered Clouds
9:54 PM 33.8 °F 27.7 °F 26.6 °F 75% 30.10 in 10.0 mi SSE 6.9 mph - N/A   Mostly Cloudy
10:14 PM 33.8 °F 29.6 °F 26.6 °F 75% 30.09 in 10.0 mi SSE 4.6 mph - N/A   Scattered Clouds
10:34 PM 33.8 °F 28.6 °F 26.6 °F 75% 30.09 in 10.0 mi SSE 5.8 mph - N/A   Mostly Cloudy
10:54 PM 33.8 °F 30.8 °F 26.6 °F 75% 30.09 in 10.0 mi SSE 3.5 mph - N/A   Overcast
11:14 PM 32.0 °F 28.7 °F 24.8 °F 75% 30.08 in 10.0 mi SSE 3.5 mph - N/A   Scattered Clouds
11:34 PM 33.8 °F - 26.6 °F 75% 30.08 in 10.0 mi Calm Calm - N/A   Mostly Cloudy
11:54 PM 33.8 °F - 26.6 °F 75% 30.08 in 10.0 mi Calm Calm - N/A   Mostly Cloudy